Погода в Воскресенском

Россия / Тверская область     56°39′46″N   31°45′33″E
темп.,
°C
ветер,
м/с
пор.,
м/с
влажн.,
%
обл.,
%
осадки,
мм/ч
давл.,
гПа
погр.,
м
14 июня, пн
пн1400:00+13с289872 0.1 1010188
03:00+12с389943 0.1 1011211
06:00+13с279787 0.0 1013220
09:00+15с348858 0.0 1015453
12:00+19ссз336273 0.0 10161087
15:00+21ссз335313 0.0 10161415
18:00+21с225288 0.0 10161487
21:00+16с22785 0.0 101630
15 июня, вт
вт1500:00+13всв11795 0.0 101610
03:00+11юв118330 0.0 101610
06:00+13ююз23802 0.0 101581
09:00+19зюз35634 0.0 1014678
12:00+22зюз46425 0.0 10131567
15:00+23з45343 0.0 10121741
18:00+22з3551100 0.0 10111871
21:00+16сз3885100 0.0 1012317
16 июня, ср
ср1600:00+14сз2697100 0.0 1012209
03:00+12ссз399033 0.0 1014322
06:00+11ссз26820 0.0 1015190
09:00+16с46520 0.0 1017741
12:00+19с453842 0.0 10181609
15:00+21с3433100 0.0 10181763
18:00+19с234499 0.0 10191500
21:00+14ссв227045 0.0 102011
17 июня, чт
чт1700:00+11вюв00715 0.0 102210
03:00+10зсз11705 0.0 102310
06:00+12юз11700 0.0 102436
09:00+19зюз225052 0.0 1025535
12:00+22з22395 0.0 10251525
15:00+24з22355 0.0 10251772
18:00+23з224168 0.0 10251615
21:00+17з117060 0.0 102511
18 июня, пт
пт1800:00+14юв11725 0.0 102611
03:00+13ю22750 0.0 102717
06:00+14ю22763 0.0 102760
09:00+21юз24545 0.0 1027461
12:00+25ююз354125 0.0 10261543
15:00+26юз453722 0.0 10251823
18:00+25юз35475 0.0 10241667
21:00+19ююз38780 0.0 1025163